(499679) = 2010 VV208

Discovered at Mount Lemmon on 2010-09-17 by Mt. Lemmon Survey.

Orbit

Orbit type: Main Belt

Note: WebGL enabled browser required.

epoch2024-03-31.0
epoch JD2460400.5
perihelion date2021-10-03.61498
perihelion JD2459491.11498
argument of perihelion (°)340.92166
ascending node (°)34.62839
inclination (°)3.35821
eccentricity0.1795471
perihelion distance (AU)1.9645157
Tisserand w.r.t. Jupiter3.5
ΔV w.r.t. Earth (km/sec)8.8
semimajor axis (AU)2.3944284
mean anomaly (°)241.90724
mean daily motion (°/day)0.26601190
aphelion distance (AU)2.824
period (years)3.71
P-vector [x]0.96307769
P-vector [y]0.25399859
P-vector [z]0.08925285
Q-vector [x]-0.26715785
Q-vector [y]0.86065271
Q-vector [z]0.43347849
absolute magnitude18.19
phase slope0.15
uncertainty0
referenceMPEC 2024-E23
observations used171
oppositions8
arc length (days)6517
first opposition used2004
last opposition used2021
residual rms (arc-secs)0.63
perturbers coarse indicatorM-v
perturbers precise indicator003Ek
first observation date used2004-01-16.0
last observation date used2021-11-19.0
computer nameMPCLINUX
JD of orbit computation2457990.298111
perihelion JD uncertainty (days)5.1124E-05
argument of perihelion uncertainty (°)6.3271E-05
ascending node uncertainty (°)6.2027E-05
inclination uncertainty (°)3.7445E-06
eccentricity uncertainty 6.1848E-08
perihelion distance uncertainty (AU)1.6210E-07
Minimum Orbit Intersection Distances (in AU)
for orbit epoch: 2460400.5, reference: E2024-E23
Mercury1.61563
Venus1.23961
Earth0.96619
Mars0.53976
Jupiter2.62885
Saturn6.61503
Uranus15.6607
Neptune27.7533

Observations

174 total observations over interval: 2004 01 16.33975 – 2021 11 19.334877
These data are available for download (format description).

Date (UT) J2000 RA J2000 Dec Magn Location Ref
2004 01 16.33975 07 47 04.79 +26 51 56.4 21.7 V 691 – Steward Observatory, Kitt Peak-Spacewatch MPS 447790
2004 01 16.37453 07 47 02.25 +26 52 02.3 21.4 V 691 – Steward Observatory, Kitt Peak-Spacewatch MPS 447790
2004 01 16.40223 07 47 00.24 +26 52 07.0 21.5 V 691 – Steward Observatory, Kitt Peak-Spacewatch MPS 447790
2010 09 17.43693 03 12 13.96 +16 56 26.4 21.4 V G96 – Mt. Lemmon Survey MPS 443475
2010 09 17.44574 03 12 14.14 +16 56 28.2 21.4 V G96 – Mt. Lemmon Survey MPS 443475
2010 09 17.45451 03 12 14.29 +16 56 30.1 21.0 V G96 – Mt. Lemmon Survey MPS 443475
2010 09 17.46337 03 12 14.47 +16 56 31.9 20.9 V G96 – Mt. Lemmon Survey MPS 443475
2010 10 31.25913 02 54 13.71 +17 30 15.3 19.8 V G96 – Mt. Lemmon Survey MPS 443475
2010 10 31.26656 02 54 13.28 +17 30 14.4 19.6 V G96 – Mt. Lemmon Survey MPS 443475
2010 10 31.27401 02 54 12.78 +17 30 13.8 19.8 V G96 – Mt. Lemmon Survey MPS 443475
2010 10 31.28153 02 54 12.31 +17 30 13.1 19.9 V G96 – Mt. Lemmon Survey MPS 443475
2010 11 01.13804 02 53 20.78 +17 28 49.0 19.7 r I41 – Palomar Mountain--ZTF MPS 441834
2010 11 01.22206 02 53 15.53 +17 28 42.4 19.9 r I41 – Palomar Mountain--ZTF MPS 441834
2010 11 01.31582 02 53 09.53 +17 28 33.6 19.9 r I41 – Palomar Mountain--ZTF MPS 441834
2010 11 01.39470 02 53 04.48 +17 28 25.7 20.0 r I41 – Palomar Mountain--ZTF MPS 441834
2010 11 01.48122 02 52 58.99 +17 28 16.3 20.0 r I41 – Palomar Mountain--ZTF MPS 441834
2010 11 02.16219 02 52 18.23 +17 27 07.2 20.1 r I41 – Palomar Mountain--ZTF MPS 441834
2010 11 02.25279 02 52 12.48 +17 26 59.2 19.6 r I41 – Palomar Mountain--ZTF MPS 441834
2010 11 02.33321 02 52 07.31 +17 26 51.1 19.8 r I41 – Palomar Mountain--ZTF MPS 441834
2010 11 03.15210 02 51 17.43 +17 25 24.8 20.4 r I41 – Palomar Mountain--ZTF MPS 441834
2010 11 03.29117 02 51 08.53 +17 25 11.2 19.9 r I41 – Palomar Mountain--ZTF MPS 441834
2010 11 03.33038 02 51 05.99 +17 25 07.1 19.8 r I41 – Palomar Mountain--ZTF MPS 441834
2010 11 03.37996 02 51 02.78 +17 25 01.6 19.9 r I41 – Palomar Mountain--ZTF MPS 441834
2010 11 04.11823 02 50 17.86 +17 23 40.7 19.7 r I41 – Palomar Mountain--ZTF MPS 439665
2010 11 04.20030 02 50 12.67 +17 23 32.8 19.8 r I41 – Palomar Mountain--ZTF MPS 439665
2010 11 04.37513 02 50 01.34 +17 23 14.2 19.6 r I41 – Palomar Mountain--ZTF MPS 439665
2010 11 05.12750 02 49 15.44 +17 21 49.6 20.0 r I41 – Palomar Mountain--ZTF MPS 441834
2010 11 05.21821 02 49 09.66 +17 21 40.5 19.6 r I41 – Palomar Mountain--ZTF MPS 441834
2010 11 06.13580 02 48 13.02 +17 19 56.0 19.5 r I41 – Palomar Mountain--ZTF MPS 439665
2010 11 06.21401 02 48 08.01 +17 19 47.8 19.6 r I41 – Palomar Mountain--ZTF MPS 439665
2010 11 06.31631 02 48 01.38 +17 19 36.6 19.5 r I41 – Palomar Mountain--ZTF MPS 439665
2010 11 07.28499 02 47 01.63 +17 17 44.9 19.3 r I41 – Palomar Mountain--ZTF MPS 441834
2010 11 07.37073 02 46 56.04 +17 17 34.5 19.5 r I41 – Palomar Mountain--ZTF MPS 441834
2010 11 07.45076 02 46 50.90 +17 17 24.7 19.5 r I41 – Palomar Mountain--ZTF MPS 441834
2010 11 09.23374 02 45 01.80 +17 13 55.6 19.7 V 703 – Catalina Sky Survey MPS 443475
2010 11 09.23837 02 45 01.65 +17 13 54.4 19.8 V 703 – Catalina Sky Survey MPS 443475
2010 11 09.24296 02 45 01.33 +17 13 53.8 20.1 V 703 – Catalina Sky Survey MPS 443475
2010 11 09.24758 02 45 01.04 +17 13 51.9 19.8 V 703 – Catalina Sky Survey MPS 443475
2010 11 10.28991 02 43 57.46 +17 11 47.7 19.5 V G96 – Mt. Lemmon Survey MPS 443475
2010 11 10.29561 02 43 57.10 +17 11 46.9 19.6 V G96 – Mt. Lemmon Survey MPS 443475
2010 11 10.30139 02 43 56.74 +17 11 46.3 19.5 V G96 – Mt. Lemmon Survey MPS 443475
2010 11 10.30713 02 43 56.35 +17 11 45.5 19.7 V G96 – Mt. Lemmon Survey MPS 443475
2010 11 16.19522 02 38 12.76 +16 59 59.0 20.0 r I41 – Palomar Mountain--ZTF MPS 441834
2010 11 16.24741 02 38 09.73 +16 59 53.4 20.2 r I41 – Palomar Mountain--ZTF MPS 441834
2012 03 23.24639 11 41 01.03 +05 32 22.5 21.1 V G96 – Mt. Lemmon Survey MPS 447790
2012 03 23.25333 11 41 00.67 +05 32 24.8 22.6 V G96 – Mt. Lemmon Survey MPS 447790
2012 03 23.26029 11 41 00.27 +05 32 26.9 21.6 V G96 – Mt. Lemmon Survey MPS 447790
2012 03 23.26731 11 40 59.84 +05 32 29.1 21.1 V G96 – Mt. Lemmon Survey MPS 447790
2014 11 19.43950 07 11 33.48 +26 30 53.1 21.1 V G96 – Mt. Lemmon Survey MPS 545745
2014 11 19.44709 07 11 33.39 +26 30 54.3 20.8 V G96 – Mt. Lemmon Survey MPS 545745
2014 11 19.45468 07 11 33.30 +26 30 55.8 20.4 V G96 – Mt. Lemmon Survey MPS 545745
2014 11 19.46436 07 11 33.23 +26 30 57.5 20.4 V G96 – Mt. Lemmon Survey MPS 545745
2014 11 28.40667 07 08 40.04 +26 57 52.6 19.7 V G96 – Mt. Lemmon Survey MPS 549746
2014 11 28.41353 07 08 39.76 +26 57 53.6 20.7 V G96 – Mt. Lemmon Survey MPS 549746
2014 11 28.42041 07 08 39.55 +26 57 55.0 20.6 V G96 – Mt. Lemmon Survey MPS 549746
2014 11 28.42727 07 08 39.38 +26 57 56.3 20.2 V G96 – Mt. Lemmon Survey MPS 549746
2014 12 28.40438 06 40 19.97 +28 24 54.9 21.1 V G96 – Mt. Lemmon Survey MPS 560056
2014 12 28.41104 06 40 19.47 +28 24 55.3 20.3 V G96 – Mt. Lemmon Survey MPS 560056
2014 12 28.41770 06 40 18.99 +28 24 56.0 21.1 V G96 – Mt. Lemmon Survey MPS 560056
2014 12 28.42437 06 40 18.53 +28 24 56.6 20.7 V G96 – Mt. Lemmon Survey MPS 560056
2016 04 01.42153 13 26 19.034 -07 32 57.60 21.9 w F51 – Pan-STARRS 1, Haleakala MPS 695996
2016 04 01.43493 13 26 18.278 -07 32 54.09 21.8 w F51 – Pan-STARRS 1, Haleakala MPS 695996
2016 04 01.46188 13 26 16.756 -07 32 46.74 21.7 w F51 – Pan-STARRS 1, Haleakala MPS 695996
2016 04 02.41710 13 25 24.396 -07 28 28.50 21.8 w F51 – Pan-STARRS 1, Haleakala MPS 698785
2016 04 02.44097 13 25 23.011 -07 28 22.39 22.0 w F51 – Pan-STARRS 1, Haleakala MPS 698785
2016 04 02.45295 13 25 22.341 -07 28 18.80 22.2 w F51 – Pan-STARRS 1, Haleakala MPS 698785
2017 07 25.48029 21 26 45.843 -21 35 39.33 20.6 w F51 – Pan-STARRS 1, Haleakala MPS 806575
2017 07 25.49051 21 26 45.317 -21 35 42.10 21.0 w F51 – Pan-STARRS 1, Haleakala MPS 806575
2017 07 25.50072 21 26 44.777 -21 35 45.07 21.0 w F51 – Pan-STARRS 1, Haleakala MPS 806575
2017 07 29.46584 21 23 22.099 -21 54 30.07 20.5 w F51 – Pan-STARRS 1, Haleakala MPS 807931
2017 07 29.47685 21 23 21.472 -21 54 33.20 20.7 w F51 – Pan-STARRS 1, Haleakala MPS 807931
2017 07 29.48787 21 23 20.838 -21 54 36.29 20.6 w F51 – Pan-STARRS 1, Haleakala MPS 807931
2017 07 29.49890 21 23 20.225 -21 54 39.37 20.5 w F51 – Pan-STARRS 1, Haleakala MPS 807931
2017 08 24.37497 20 58 34.633 -23 26 02.88 20.4 w F51 – Pan-STARRS 1, Haleakala MPS 812076
2017 08 24.40855 20 58 32.811 -23 26 06.12 20.5 w F51 – Pan-STARRS 1, Haleakala MPS 812076
2017 10 08.22688 20 52 17.526 -21 53 33.68 21.3 w F51 – Pan-STARRS 1, Haleakala MPS 826208
2017 10 08.23853 20 52 17.952 -21 53 30.13 21.4 w F51 – Pan-STARRS 1, Haleakala MPS 826208
2017 10 08.25015 20 52 18.345 -21 53 26.61 21.6 w F51 – Pan-STARRS 1, Haleakala MPS 826208
2019 01 14.58973 09 42 28.940 +19 18 46.63 21.6 w F51 – Pan-STARRS 1, Haleakala MPS 1372058
2019 01 14.60336 09 42 28.276 +19 18 50.40 21.9 w F51 – Pan-STARRS 1, Haleakala MPS 1372058
2019 01 14.61700 09 42 27.613 +19 18 54.29 21.8 w F51 – Pan-STARRS 1, Haleakala MPS 1372058
2019 02 04.36340 09 22 23.552 +21 02 04.31 21.7 w F51 – Pan-STARRS 1, Haleakala MPS 969720
2019 02 04.37658 09 22 22.678 +21 02 08.15 21.5 w F51 – Pan-STARRS 1, Haleakala MPS 969720
2019 02 04.38974 09 22 21.785 +21 02 11.98 21.2 w F51 – Pan-STARRS 1, Haleakala MPS 969720
2019 02 04.40298 09 22 20.899 +21 02 15.54 21.1 w F51 – Pan-STARRS 1, Haleakala MPS 969720
2019 02 08.29273 09 18 08.87 +21 19 24.0 21.1 G G96 – Mt. Lemmon Survey MPS 974087
2019 02 08.29786 09 18 08.49 +21 19 25.4   G96 – Mt. Lemmon Survey MPS 974087
2019 02 08.30299 09 18 08.25 +21 19 25.5   G96 – Mt. Lemmon Survey MPS 974087
2019 02 08.30811 09 18 07.84 +21 19 27.8 21.4 G G96 – Mt. Lemmon Survey MPS 974087
2021 08 31.426569 01 35 48.827 +06 40 29.91 21.38 w F52 – Pan-STARRS 2, Haleakala MPS 1459393
2021 08 31.438117 01 35 48.872 +06 40 30.95 20.98 w F52 – Pan-STARRS 2, Haleakala MPS 1459393
2021 08 31.449691 01 35 48.908 +06 40 31.82 20.88 w F52 – Pan-STARRS 2, Haleakala MPS 1459393
2021 08 31.461216 01 35 48.950 +06 40 33.00 20.75 w F52 – Pan-STARRS 2, Haleakala MPS 1459393
